Notices

What's New in latest Release from April 7th, 2021:

- Updated Glossary, including Speed of Maximum Gust, and Total Hourly Precipitation

- Updated national and regional climate services offices contacts and prices information

- Addition of station inventory lists for 1981-2010, 1971-2000, and 1961-1990 Normals.

If you haven't already, please take our survey and provide feedback about our website: https://eccc.sondage-survey.ca/f/LanguageSelection.aspx?s=442ca660-fcf1-47c0-95a9-59707d6fd709

Hourly Data Report for January 15, 2004

TORONTO CITY
ONTARIO

43°40'00.000" N
79°24'00.000" W
112.50 m
6158355
71508
XTO

Download Data

Hourly Data (January 2004)
Hourly Data Report for January 15, 2004
TIME
LST
Temp Definition
°C
Dew Point Definition
°C
Rel Hum Definition
%
Precip. Amount Definition
mm

Wind Dir Definition
10's deg

Wind Spd Definition
km/h
Visibility Definition
km
Stn Press Definition
kPa
Hmdx Definition


Wind Chill Definition


Weather Definition


00:00 -14.5 -16.3 86   LegendMM LegendMM LegendMM 99.86     LegendNANA
01:00 -15.1 -17.1 85   LegendMM LegendMM LegendMM 99.93     LegendNANA
02:00 -17.0 -19.5 81   LegendMM LegendMM LegendMM 100.00     LegendNANA
03:00 -18.2 -20.9 79   LegendMM LegendMM LegendMM 100.12     LegendNANA
04:00 -18.9 -21.7 79   LegendMM LegendMM LegendMM 100.19     LegendNANA
05:00 -19.9 -23.0 76   LegendMM LegendMM LegendMM 100.28     LegendNANA
06:00 -20.3 -23.5 76   LegendMM LegendMM LegendMM 100.42     LegendNANA
07:00 -20.5 -23.5 77   LegendMM LegendMM LegendMM 100.51     LegendNANA
08:00 -20.7 -23.8 76   LegendMM LegendMM LegendMM 100.61     LegendNANA
09:00 -20.9 -24.4 73   LegendMM LegendMM LegendMM 100.66     LegendNANA
10:00 -20.6 -24.5 71   LegendMM LegendMM LegendMM 100.74     LegendNANA
11:00 -18.8 -23.2 68   LegendMM LegendMM LegendMM 100.77     LegendNANA
12:00 -19.6 -25.4 60   LegendMM LegendMM LegendMM 100.76     LegendNANA
13:00 -19.1 -25.0 60   LegendMM LegendMM LegendMM 100.69     LegendNANA
14:00 -19.2 -25.1 60   LegendMM LegendMM LegendMM 100.72     LegendNANA
15:00 -19.3 -25.2 60   LegendMM LegendMM LegendMM 100.74     LegendNANA
16:00 -19.2 -24.6 62   LegendMM LegendMM LegendMM 100.75     LegendNANA
17:00 -19.7 -25.0 63   LegendMM LegendMM LegendMM 100.80     LegendNANA
18:00 -20.1 -25.1 64   LegendMM LegendMM LegendMM 100.89     LegendNANA
19:00 -20.5 -24.6 70   LegendMM LegendMM LegendMM 100.95     LegendNANA
20:00 -20.6 -24.8 69   LegendMM LegendMM LegendMM 100.97     LegendNANA
21:00 -20.9 -26.7 60   LegendMM LegendMM LegendMM 100.99     LegendNANA
22:00 -21.2 -26.8 61   LegendMM LegendMM LegendMM 101.02     LegendNANA
23:00 -21.2 -26.0 65   LegendMM LegendMM LegendMM 101.03     LegendNANA

Notes on Data Quality.

Legend

  • E = Estimated
  • M = Missing
  • NA = Not Available*
  • [empty] = Indicates an unobserved value
Date modified: